SPELTRA - Orbit

View from above orbital plane
View from above orbital plane
View from above satellite
View from above satellite

Ground track
Ground track

The orbit data is extracted from the following two-line orbital elements,

1 25026U 97066D   13144.62481905  .00000069  00000-0  68175-3 0  3327
2 25026 007.6587 133.8388 6532178 287.2955 266.7209 03.08166593175314
Epoch (UTC): 24 May 2013 14:59:44
Eccentricity: 0.6532178
inclination: 7.6587°
perigee height: 539 km
apogee height: 26598 km
right ascension of ascending node: 133.8388°
argument of perigee: 287.2955°
revolutions per day: 3.08166593
mean anomaly at epoch: 266.7209°
orbit number at epoch: 17531

The dashed part of the orbit path shows where the satellite is in the earth's shadow,  

Developed and maintained by Chris Peat, Heavens-Above GmbH. Please read the updated FAQ before sending e-mail. Imprint. DLR